Weather History for Crookston, MN

Change the Weather History Date:

Saturday, June 22, 2013

  Actual Average Record
Temperature  
Mean Temperature 72 °F -  
Max Temperature 80 °F 72 °F 87 °F (2005)
Min Temperature 64 °F 52 °F 44 °F (2004)
Cooling Degree Days 7    
Growing Degree Days 22 (Base 50)    
Moisture  
Dew Point 64 °F    
Average Humidity 77    
Maximum Humidity 94    
Minimum Humidity 58    
Precipitation  
Precipitation 0.00 in - - ()
Sea Level Pressure  
Sea Level Pressure 29.88 in    
Wind  
Wind Speed 7 mph (SSE)    
Max Wind Speed 13 mph    
Max Gust Speed 20 mph    
Visibility 10 miles    
Events      
Averages and records for this station are not official NWS values.
T = Trace of Precipitation, MM = Missing Value Source: NWS Daily Summary

Daily Weather History Graph

Daily Weather History Graph

Search for Another Location

Airport:

Trip Planner

Search our weather history database for the weather conditions in past years. The results will help you decide how hot, cold, wet, or windy it might be!

Date:

Astronomy

Jun. 22, 2013 Rise Set
Actual Time 5:27 AM CDT 9:29 PM CDT
Civil Twilight 4:46 AM CDT 10:10 PM CDT
Nautical Twilight 3:49 AM CDT 11:07 PM CDT
Astronomical Twilight 2:13 AM CDT 12:42 AM CDT
Moon 8:39 PM CDT (6/22) 4:46 AM CDT (6/22)
Length of Visible Light 17h 23m
Length of Day
16h 01m
Waxing Gibbous, 99% of the Moon is Illuminated
Jun 22
Waxing Gibbous
Jun 23
Full
Jun 29
Last Quarter
Jul 8
New
Jul 15
First Quarter

Hourly Weather History & Observations

Time (CDT) Temp. Heat Index Dew Point Humidity Pressure Visibility Wind Dir Wind Speed Gust Speed Precip Events Conditions
12:14 AM 71.6 °F - 66.2 °F 83% 29.91 in 10.0 mi ESE 5.8 mph - N/A   Clear
12:35 AM 69.8 °F - 64.4 °F 83% 29.91 in 10.0 mi ESE 5.8 mph - N/A   Clear
12:55 AM 71.6 °F - 64.4 °F 78% 29.91 in 10.0 mi East 3.5 mph - N/A   Clear
1:14 AM 69.8 °F - 64.4 °F 83% 29.91 in 10.0 mi East 5.8 mph - N/A   Clear
1:35 AM 69.8 °F - 64.4 °F 83% 29.89 in 10.0 mi ESE 5.8 mph - N/A   Clear
1:55 AM 69.8 °F - 64.4 °F 83% 29.88 in 10.0 mi East 5.8 mph - N/A   Clear
2:14 AM 69.8 °F - 64.4 °F 83% 29.91 in 10.0 mi ESE 5.8 mph - N/A   Clear
2:35 AM 68.0 °F - 64.4 °F 88% 29.93 in 10.0 mi SE 3.5 mph - N/A   Clear
2:55 AM 68.0 °F - 64.4 °F 88% 29.94 in 10.0 mi ESE 4.6 mph - N/A   Clear
3:14 AM 68.0 °F - 64.4 °F 88% 29.93 in 10.0 mi ESE 8.1 mph - N/A   Clear
3:35 AM 68.0 °F - 64.4 °F 88% 29.92 in 10.0 mi ESE 6.9 mph - N/A   Clear
3:55 AM 66.2 °F - 64.4 °F 94% 29.91 in 10.0 mi SE 8.1 mph - N/A   Clear
4:14 AM 66.2 °F - 64.4 °F 94% 29.92 in 10.0 mi SE 6.9 mph - N/A   Clear
4:35 AM 66.2 °F - 64.4 °F 94% 29.92 in 10.0 mi ESE 8.1 mph - N/A   Clear
4:54 AM 66.2 °F - 64.4 °F 94% 29.91 in 10.0 mi ESE 6.9 mph - N/A   Clear
5:14 AM 66.2 °F - 64.4 °F 94% 29.90 in 10.0 mi ESE 8.1 mph - N/A   Clear
5:35 AM 66.2 °F - 62.6 °F 88% 29.91 in 10.0 mi ESE 6.9 mph - N/A   Clear
5:54 AM 64.4 °F - 62.6 °F 94% 29.91 in 10.0 mi SE 8.1 mph - N/A   Clear
6:15 AM 66.2 °F - 62.6 °F 88% 29.92 in 10.0 mi SE 8.1 mph - N/A   Clear
6:35 AM 66.2 °F - 62.6 °F 88% 29.93 in 10.0 mi SE 9.2 mph - N/A   Clear
6:54 AM 66.2 °F - 62.6 °F 88% 29.92 in 10.0 mi SE 9.2 mph - N/A   Clear
7:15 AM 66.2 °F - 62.6 °F 88% 29.91 in 10.0 mi SE 9.2 mph - N/A   Clear
7:35 AM 66.2 °F - 62.6 °F 88% 29.91 in 10.0 mi SE 10.4 mph - N/A   Clear
7:54 AM 68.0 °F - 62.6 °F 83% 29.91 in 10.0 mi SSE 10.4 mph - N/A   Clear
8:15 AM 68.0 °F - 62.6 °F 83% 29.91 in 10.0 mi SE 10.4 mph - N/A   Clear
8:35 AM 69.8 °F - 62.6 °F 78% 29.91 in 10.0 mi SE 11.5 mph - N/A   Clear
8:54 AM 69.8 °F - 64.4 °F 83% 29.90 in 10.0 mi SE 12.7 mph - N/A   Scattered Clouds
9:15 AM 69.8 °F - 64.4 °F 83% 29.90 in 10.0 mi SE 12.7 mph - N/A   Mostly Cloudy
9:35 AM 69.8 °F - 62.6 °F 78% 29.90 in 10.0 mi South 11.5 mph - N/A   Overcast
9:54 AM 69.8 °F - 64.4 °F 83% 29.91 in 10.0 mi South 9.2 mph - N/A   Overcast
10:15 AM 69.8 °F - 64.4 °F 83% 29.91 in 10.0 mi South 10.4 mph - N/A   Overcast
10:35 AM 69.8 °F - 64.4 °F 83% 29.91 in 10.0 mi South 11.5 mph - N/A   Mostly Cloudy
10:54 AM 69.8 °F - 64.4 °F 83% 29.91 in 10.0 mi South 9.2 mph - N/A   Mostly Cloudy
11:15 AM 71.6 °F - 64.4 °F 78% 29.91 in 10.0 mi South 9.2 mph - N/A   Mostly Cloudy
11:34 AM 71.6 °F - 64.4 °F 78% 29.91 in 10.0 mi SSW 6.9 mph - N/A   Mostly Cloudy
11:54 AM 71.6 °F - 64.4 °F 78% 29.91 in 10.0 mi South 6.9 mph - N/A   Scattered Clouds
12:15 PM 71.6 °F - 64.4 °F 78% 29.91 in 10.0 mi South 6.9 mph - N/A   Scattered Clouds
12:34 PM 71.6 °F - 64.4 °F 78% 29.91 in 10.0 mi South 5.8 mph - N/A   Scattered Clouds
12:54 PM 73.4 °F - 64.4 °F 73% 29.90 in 10.0 mi South 8.1 mph - N/A   Scattered Clouds
1:14 PM 73.4 °F - 64.4 °F 73% 29.91 in 10.0 mi SSW 6.9 mph - N/A   Scattered Clouds
1:34 PM 75.2 °F - 66.2 °F 73% 29.90 in 10.0 mi South 5.8 mph - N/A   Scattered Clouds
1:55 PM 75.2 °F - 64.4 °F 69% 29.90 in 10.0 mi SW 8.1 mph - N/A   Scattered Clouds
2:14 PM 75.2 °F - 66.2 °F 73% 29.89 in 10.0 mi SSW 4.6 mph - N/A   Scattered Clouds
2:34 PM 77.0 °F - 64.4 °F 65% 29.88 in 10.0 mi SSW 4.6 mph - N/A   Scattered Clouds
2:55 PM 78.8 °F - 66.2 °F 65% 29.89 in 10.0 mi South 5.8 mph - N/A   Scattered Clouds
3:14 PM 77.0 °F - 64.4 °F 65% 29.89 in 10.0 mi South 8.1 mph - N/A   Scattered Clouds
3:34 PM 78.8 °F - 64.4 °F 61% 29.89 in 10.0 mi SSW 6.9 mph - N/A   Scattered Clouds
3:55 PM 77.0 °F - 64.4 °F 65% 29.88 in 10.0 mi SSW 5.8 mph - N/A   Scattered Clouds
4:14 PM 78.8 °F - 64.4 °F 61% 29.86 in 10.0 mi South 3.5 mph - N/A   Mostly Cloudy
4:34 PM 78.8 °F - 64.4 °F 61% 29.86 in 10.0 mi SSW 9.2 mph - N/A   Scattered Clouds
4:55 PM 80.6 °F 82.3 °F 64.4 °F 58% 29.86 in 10.0 mi SW 12.7 mph 19.6 mph N/A   Mostly Cloudy
5:14 PM 80.6 °F 82.3 °F 64.4 °F 58% 29.85 in 10.0 mi West 4.6 mph 9.2 mph N/A   Scattered Clouds
5:34 PM 80.6 °F 82.3 °F 64.4 °F 58% 29.85 in 10.0 mi WNW 9.2 mph - N/A   Scattered Clouds
5:55 PM 80.6 °F 82.7 °F 66.2 °F 61% 29.84 in 10.0 mi WNW 4.6 mph - N/A   Scattered Clouds
6:14 PM 80.6 °F 82.7 °F 66.2 °F 61% 29.84 in 10.0 mi WNW 6.9 mph - N/A   Scattered Clouds
6:35 PM 80.6 °F 82.7 °F 66.2 °F 61% 29.83 in 10.0 mi WSW 3.5 mph - N/A   Scattered Clouds
6:55 PM 80.6 °F 82.3 °F 64.4 °F 58% 29.82 in 10.0 mi WSW 3.5 mph - N/A   Clear
7:14 PM 80.6 °F 82.3 °F 64.4 °F 58% 29.81 in 10.0 mi Calm Calm - N/A   Clear
7:35 PM 80.6 °F 82.3 °F 64.4 °F 58% 29.80 in 10.0 mi South 3.5 mph - N/A   Clear
7:55 PM 80.6 °F 82.7 °F 66.2 °F 61% 29.80 in 10.0 mi Calm Calm - N/A   Scattered Clouds
8:14 PM 78.8 °F - 66.2 °F 65% 29.80 in 10.0 mi South 10.4 mph - N/A   Mostly Cloudy
8:35 PM 77.0 °F - 66.2 °F 69% 29.81 in 10.0 mi South 9.2 mph - N/A   Scattered Clouds
8:55 PM 77.0 °F - 66.2 °F 69% 29.81 in 10.0 mi South 6.9 mph - N/A   Mostly Cloudy
9:14 PM 75.2 °F - 66.2 °F 73% 29.81 in 10.0 mi South 8.1 mph - N/A   Mostly Cloudy
9:35 PM 75.2 °F - 64.4 °F 69% 29.81 in 10.0 mi South 8.1 mph - N/A   Scattered Clouds
9:55 PM 73.4 °F - 66.2 °F 78% 29.81 in 10.0 mi South 6.9 mph - N/A   Clear
10:14 PM 73.4 °F - 64.4 °F 73% 29.82 in 10.0 mi South 4.6 mph - N/A   Clear
10:35 PM 69.8 °F - 64.4 °F 83% 29.82 in 10.0 mi South 4.6 mph - N/A   Clear
10:54 PM 69.8 °F - 64.4 °F 83% 29.82 in 10.0 mi SSE 4.6 mph - N/A   Clear
11:14 PM 68.0 °F - 64.4 °F 88% 29.82 in 10.0 mi SSE 6.9 mph - N/A   Clear
11:35 PM 66.2 °F - 64.4 °F 94% 29.82 in 10.0 mi SSE 6.9 mph - N/A   Clear
11:54 PM 66.2 °F - 64.4 °F 94% 29.82 in 10.0 mi SSE 6.9 mph - N/A   Clear